Time,TemperatureF,DewpointF,PressureIn,WindDirection,WindDirectionDegrees,WindSpeedMPH,WindSpeedGustMPH,Humidity,HourlyPrecipIn,Conditions,Clouds,dailyrainin,SoftwareType,DateUTC
2013-05-12 00:00:00,44.1,26.1,30.17,WNW,295,0.0,0.0,49,0.00,,,0.00,Wunderground v.1.15,2013-05-12 05:00:00,
2013-05-12 00:05:00,44.0,26.5,30.17,WNW,300,0.0,0.0,50,0.00,,,0.00,Wunderground v.1.15,2013-05-12 05:05:00,
2013-05-12 00:10:00,44.0,26.5,30.17,WNW,300,0.0,0.0,50,0.00,,,0.00,Wunderground v.1.15,2013-05-12 05:10:00,
2013-05-12 00:20:00,43.8,26.3,30.17,WNW,303,0.0,0.0,50,0.00,,,0.00,Wunderground v.1.15,2013-05-12 05:20:00,
2013-05-12 00:25:00,43.8,26.3,30.18,NW,306,0.0,0.0,50,0.00,,,0.00,Wunderground v.1.15,2013-05-12 05:25:00,
2013-05-12 00:35:00,43.7,26.3,30.18,WNW,300,0.0,0.0,50,0.00,,,0.00,Wunderground v.1.15,2013-05-12 05:35:00,
2013-05-12 00:40:00,43.7,26.3,30.18,NW,306,0.0,0.0,50,0.00,,,0.00,Wunderground v.1.15,2013-05-12 05:40:00,
2013-05-12 00:45:00,43.7,26.3,30.18,WNW,294,0.0,0.0,50,0.00,,,0.00,Wunderground v.1.15,2013-05-12 05:45:00,
2013-05-12 00:50:00,43.6,26.2,30.18,WNW,302,0.0,0.0,50,0.00,,,0.00,Wunderground v.1.15,2013-05-12 05:50:00,
2013-05-12 00:55:00,43.5,26.1,30.18,WNW,302,0.0,1.0,50,0.00,,,0.00,Wunderground v.1.15,2013-05-12 05:55:00,
2013-05-12 01:00:00,43.3,26.4,30.18,NW,304,0.0,0.0,51,0.00,,,0.00,Wunderground v.1.15,2013-05-12 06:00:00,
2013-05-12 01:05:00,43.1,26.2,30.18,WNW,296,0.0,0.0,51,0.00,,,0.00,Wunderground v.1.15,2013-05-12 06:05:00,
2013-05-12 01:15:00,42.9,26.5,30.18,NNW,346,0.0,0.0,52,0.00,,,0.00,Wunderground v.1.15,2013-05-12 06:15:00,
2013-05-12 01:20:00,42.8,25.9,30.18,NW,306,0.0,0.0,51,0.00,,,0.00,Wunderground v.1.15,2013-05-12 06:20:00,
2013-05-12 01:25:00,42.8,26.4,30.18,WNW,296,0.0,0.0,52,0.00,,,0.00,Wunderground v.1.15,2013-05-12 06:25:00,
2013-05-12 01:30:00,42.7,26.3,30.18,WNW,296,0.0,0.0,52,0.00,,,0.00,Wunderground v.1.15,2013-05-12 06:30:00,
2013-05-12 01:35:00,42.6,26.2,30.18,WNW,297,0.0,0.0,52,0.00,,,0.00,Wunderground v.1.15,2013-05-12 06:35:00,
2013-05-12 01:45:00,42.2,26.3,30.18,NW,311,0.0,0.0,53,0.00,,,0.00,Wunderground v.1.15,2013-05-12 06:45:00,
2013-05-12 01:50:00,42.1,26.6,30.18,WNW,286,0.0,0.0,54,0.00,,,0.00,Wunderground v.1.15,2013-05-12 06:50:00,
2013-05-12 02:00:00,41.8,26.4,30.18,WNW,296,0.0,0.0,54,0.00,,,0.00,Wunderground v.1.15,2013-05-12 07:00:00,
2013-05-12 02:05:00,41.6,26.6,30.18,WNW,302,0.0,0.0,55,0.00,,,0.00,Wunderground v.1.15,2013-05-12 07:05:00,
2013-05-12 02:10:00,41.4,26.4,30.18,WNW,302,0.0,0.0,55,0.00,,,0.00,Wunderground v.1.15,2013-05-12 07:10:00,
2013-05-12 02:15:00,41.3,26.8,30.18,North,360,0.0,0.0,56,0.00,,,0.00,Wunderground v.1.15,2013-05-12 07:15:00,
2013-05-12 02:20:00,41.2,26.2,30.19,NW,309,0.0,0.0,55,0.00,,,0.00,Wunderground v.1.15,2013-05-12 07:20:00,
2013-05-12 02:25:00,41.3,26.3,30.19,WNW,284,0.0,0.0,55,0.00,,,0.00,Wunderground v.1.15,2013-05-12 07:25:00,
2013-05-12 02:30:00,41.4,26.4,30.18,WNW,296,1.0,1.0,55,0.00,,,0.00,Wunderground v.1.15,2013-05-12 07:30:00,
2013-05-12 02:35:00,41.3,26.3,30.18,NW,308,0.0,1.0,55,0.00,,,0.00,Wunderground v.1.15,2013-05-12 07:35:00,
2013-05-12 02:40:00,41.2,26.2,30.19,NW,307,0.0,0.0,55,0.00,,,0.00,Wunderground v.1.15,2013-05-12 07:40:00,
2013-05-12 02:45:00,41.0,26.5,30.19,NW,308,0.0,0.0,56,0.00,,,0.00,Wunderground v.1.15,2013-05-12 07:45:00,
2013-05-12 02:55:00,40.9,26.4,30.19,NW,314,0.0,0.0,56,0.00,,,0.00,Wunderground v.1.15,2013-05-12 07:55:00,
2013-05-12 03:00:00,40.7,26.2,30.19,NW,314,0.0,0.0,56,0.00,,,0.00,Wunderground v.1.15,2013-05-12 08:00:00,
2013-05-12 03:05:00,40.6,26.1,30.19,WNW,298,0.0,0.0,56,0.00,,,0.00,Wunderground v.1.15,2013-05-12 08:05:00,
2013-05-12 03:10:00,40.6,26.1,30.19,WNW,298,0.0,0.0,56,0.00,,,0.00,Wunderground v.1.15,2013-05-12 08:10:00,
2013-05-12 03:15:00,40.6,26.5,30.19,WNW,298,0.0,0.0,57,0.00,,,0.00,Wunderground v.1.15,2013-05-12 08:15:00,
2013-05-12 03:20:00,40.5,26.4,30.19,WNW,292,0.0,0.0,57,0.00,,,0.00,Wunderground v.1.15,2013-05-12 08:20:00,
2013-05-12 03:25:00,40.3,26.3,30.18,WNW,298,0.0,0.0,57,0.00,,,0.00,Wunderground v.1.15,2013-05-12 08:25:00,
2013-05-12 03:30:00,40.1,26.5,30.19,WNW,298,0.0,0.0,58,0.00,,,0.00,Wunderground v.1.15,2013-05-12 08:30:00,
2013-05-12 03:40:00,39.7,26.5,30.19,WNW,298,0.0,0.0,59,0.00,,,0.00,Wunderground v.1.15,2013-05-12 08:40:00,
2013-05-12 03:45:00,39.5,26.3,30.19,WNW,298,0.0,0.0,59,0.00,,,0.00,Wunderground v.1.15,2013-05-12 08:45:00,
2013-05-12 03:50:00,39.2,26.9,30.19,WNW,298,0.0,0.0,61,0.00,,,0.00,Wunderground v.1.15,2013-05-12 08:50:00,
2013-05-12 03:55:00,38.8,26.9,30.19,WNW,298,0.0,0.0,62,0.00,,,0.00,Wunderground v.1.15,2013-05-12 08:55:00,
2013-05-12 04:00:00,38.6,26.7,30.19,WNW,298,0.0,0.0,62,0.00,,,0.00,Wunderground v.1.15,2013-05-12 09:00:00,
2013-05-12 04:10:00,38.8,26.9,30.19,WNW,300,0.0,0.0,62,0.00,,,0.00,Wunderground v.1.15,2013-05-12 09:10:00,
2013-05-12 04:15:00,38.8,26.9,30.19,WNW,300,0.0,0.0,62,0.00,,,0.00,Wunderground v.1.15,2013-05-12 09:15:00,
2013-05-12 04:20:00,38.7,26.8,30.19,WNW,300,0.0,0.0,62,0.00,,,0.00,Wunderground v.1.15,2013-05-12 09:20:00,
2013-05-12 04:30:00,38.4,26.9,30.19,WNW,300,0.0,0.0,63,0.00,,,0.00,Wunderground v.1.15,2013-05-12 09:30:00,
2013-05-12 04:35:00,38.3,26.8,30.19,WNW,300,0.0,0.0,63,0.00,,,0.00,Wunderground v.1.15,2013-05-12 09:35:00,
2013-05-12 04:40:00,38.3,26.8,30.19,WNW,300,0.0,0.0,63,0.00,,,0.00,Wunderground v.1.15,2013-05-12 09:40:00,
2013-05-12 04:45:00,38.2,26.7,30.19,WNW,300,0.0,0.0,63,0.00,,,0.00,Wunderground v.1.15,2013-05-12 09:45:00,
2013-05-12 04:50:00,38.2,26.7,30.19,WNW,300,0.0,0.0,63,0.00,,,0.00,Wunderground v.1.15,2013-05-12 09:50:00,
2013-05-12 04:55:00,38.1,26.6,30.18,NW,314,0.0,0.0,63,0.00,,,0.00,Wunderground v.1.15,2013-05-12 09:55:00,
2013-05-12 05:00:00,37.9,26.8,30.18,NW,315,0.0,0.0,64,0.00,,,0.00,Wunderground v.1.15,2013-05-12 10:00:00,
2013-05-12 05:05:00,37.8,26.7,30.19,NW,315,0.0,0.0,64,0.00,,,0.00,Wunderground v.1.15,2013-05-12 10:05:00,
2013-05-12 05:15:00,37.5,26.8,30.19,NW,315,0.0,0.0,65,0.00,,,0.00,Wunderground v.1.15,2013-05-12 10:15:00,
2013-05-12 05:20:00,37.2,26.9,30.19,NW,315,0.0,0.0,66,0.00,,,0.00,Wunderground v.1.15,2013-05-12 10:20:00,
2013-05-12 05:25:00,36.9,27.0,30.19,NW,314,0.0,0.0,67,0.00,,,0.00,Wunderground v.1.15,2013-05-12 10:25:00,
2013-05-12 05:30:00,36.7,26.8,30.19,NW,315,0.0,0.0,67,0.00,,,0.00,Wunderground v.1.15,2013-05-12 10:30:00,
2013-05-12 05:35:00,36.4,26.8,30.19,NW,314,0.0,0.0,68,0.00,,,0.00,Wunderground v.1.15,2013-05-12 10:35:00,
2013-05-12 05:40:00,36.1,26.6,30.19,NW,315,0.0,0.0,68,0.00,,,0.00,Wunderground v.1.15,2013-05-12 10:40:00,
2013-05-12 05:50:00,35.9,26.7,30.19,NW,314,0.0,0.0,69,0.00,,,0.00,Wunderground v.1.15,2013-05-12 10:50:00,
2013-05-12 05:55:00,35.7,26.9,30.19,NW,315,0.0,0.0,70,0.00,,,0.00,Wunderground v.1.15,2013-05-12 10:55:00,
2013-05-12 06:00:00,35.6,26.8,30.20,NW,314,0.0,0.0,70,0.00,,,0.00,Wunderground v.1.15,2013-05-12 11:00:00,
2013-05-12 06:05:00,35.5,27.0,30.20,NW,315,0.0,0.0,71,0.00,,,0.00,Wunderground v.1.15,2013-05-12 11:05:00,
2013-05-12 06:10:00,35.5,27.0,30.20,NW,315,0.0,0.0,71,0.00,,,0.00,Wunderground v.1.15,2013-05-12 11:10:00,
2013-05-12 06:15:00,35.5,27.0,30.20,NW,315,0.0,0.0,71,0.00,,,0.00,Wunderground v.1.15,2013-05-12 11:15:00,
2013-05-12 06:25:00,35.5,27.4,30.20,NW,315,0.0,0.0,72,0.00,,,0.00,Wunderground v.1.15,2013-05-12 11:25:00,
2013-05-12 06:30:00,35.7,27.6,30.20,NW,315,0.0,0.0,72,0.00,,,0.00,Wunderground v.1.15,2013-05-12 11:30:00,
2013-05-12 06:35:00,35.9,27.7,30.20,NW,315,0.0,0.0,72,0.00,,,0.00,Wunderground v.1.15,2013-05-12 11:35:00,
2013-05-12 06:40:00,36.1,27.6,30.21,NNE,13,0.0,0.0,71,0.00,,,0.00,Wunderground v.1.15,2013-05-12 11:40:00,
2013-05-12 06:45:00,36.4,27.5,30.21,North,360,0.0,0.0,70,0.00,,,0.00,Wunderground v.1.15,2013-05-12 11:45:00,
2013-05-12 06:50:00,36.7,27.8,30.21,North,360,0.0,0.0,70,0.00,,,0.00,Wunderground v.1.15,2013-05-12 11:50:00,
2013-05-12 06:55:00,37.1,27.9,30.21,NW,319,0.0,0.0,69,0.00,,,0.00,Wunderground v.1.15,2013-05-12 11:55:00,
2013-05-12 07:00:00,37.5,28.2,30.21,NW,321,0.0,0.0,69,0.00,,,0.00,Wunderground v.1.15,2013-05-12 12:00:00,
2013-05-12 07:10:00,38.1,28.1,30.22,NNW,342,0.0,0.0,67,0.00,,,0.00,Wunderground v.1.15,2013-05-12 12:10:00,
2013-05-12 07:15:00,38.5,28.5,30.22,NW,326,0.0,0.0,67,0.00,,,0.00,Wunderground v.1.15,2013-05-12 12:15:00,
2013-05-12 07:20:00,39.0,29.0,30.22,NW,304,0.0,0.0,67,0.00,,,0.00,Wunderground v.1.15,2013-05-12 12:20:00,
2013-05-12 07:25:00,39.5,28.3,30.22,WNW,302,0.0,0.0,64,0.00,,,0.00,Wunderground v.1.15,2013-05-12 12:25:00,
2013-05-12 07:30:00,39.8,28.6,30.22,NW,309,0.0,0.0,64,0.00,,,0.00,Wunderground v.1.15,2013-05-12 12:30:00,
2013-05-12 07:35:00,40.3,29.5,30.22,NW,309,0.0,0.0,65,0.00,,,0.00,Wunderground v.1.15,2013-05-12 12:35:00,
2013-05-12 07:40:00,40.7,29.1,30.22,North,355,0.0,0.0,63,0.00,,,0.00,Wunderground v.1.15,2013-05-12 12:40:00,
2013-05-12 07:50:00,41.3,29.3,30.22,North,355,1.0,1.0,62,0.00,,,0.00,Wunderground v.1.15,2013-05-12 12:50:00,
2013-05-12 07:55:00,41.6,29.9,30.23,NNW,330,0.0,1.0,63,0.00,,,0.00,Wunderground v.1.15,2013-05-12 12:55:00,
2013-05-12 08:00:00,41.8,29.7,30.23,WNW,303,0.0,0.0,62,0.00,,,0.00,Wunderground v.1.15,2013-05-12 13:00:00,
2013-05-12 08:05:00,42.1,30.0,30.23,NNE,15,0.0,0.0,62,0.00,,,0.00,Wunderground v.1.15,2013-05-12 13:05:00,
2013-05-12 08:15:00,42.8,29.9,30.23,NW,306,0.0,2.0,60,0.00,,,0.00,Wunderground v.1.15,2013-05-12 13:15:00,
2013-05-12 08:20:00,43.2,30.2,30.24,NW,306,0.0,0.0,60,0.00,,,0.00,Wunderground v.1.15,2013-05-12 13:20:00,
2013-05-12 08:25:00,43.8,30.8,30.24,NW,306,0.0,0.0,60,0.00,,,0.00,Wunderground v.1.15,2013-05-12 13:25:00,
2013-05-12 08:30:00,44.1,30.3,30.24,NW,306,0.0,0.0,58,0.00,,,0.00,Wunderground v.1.15,2013-05-12 13:30:00,
2013-05-12 08:35:00,44.6,31.1,30.24,NW,306,0.0,0.0,59,0.00,,,0.00,Wunderground v.1.15,2013-05-12 13:35:00,
2013-05-12 08:45:00,45.1,29.4,30.24,WNW,300,0.0,0.0,54,0.00,,,0.00,Wunderground v.1.15,2013-05-12 13:45:00,
2013-05-12 08:50:00,45.1,29.9,30.24,WNW,300,0.0,0.0,55,0.00,,,0.00,Wunderground v.1.15,2013-05-12 13:50:00,
2013-05-12 08:55:00,45.4,29.7,30.24,NW,309,0.0,0.0,54,0.00,,,0.00,Wunderground v.1.15,2013-05-12 13:55:00,
2013-05-12 09:00:00,46.2,30.0,30.24,NNW,336,0.0,0.0,53,0.00,,,0.00,Wunderground v.1.15,2013-05-12 14:00:00,
2013-05-12 09:05:00,46.9,31.1,30.24,NNW,337,0.0,0.0,54,0.00,,,0.00,Wunderground v.1.15,2013-05-12 14:05:00,
2013-05-12 09:10:00,47.2,30.5,30.24,NW,312,0.0,0.0,52,0.00,,,0.00,Wunderground v.1.15,2013-05-12 14:10:00,
2013-05-12 09:15:00,47.5,30.3,30.24,NW,315,0.0,0.0,51,0.00,,,0.00,Wunderground v.1.15,2013-05-12 14:15:00,
2013-05-12 09:20:00,47.9,29.1,30.24,North,355,0.0,0.0,48,0.00,,,0.00,Wunderground v.1.15,2013-05-12 14:20:00,
2013-05-12 09:30:00,48.8,30.0,30.24,North,350,0.0,0.0,48,0.00,,,0.00,Wunderground v.1.15,2013-05-12 14:30:00,
2013-05-12 09:35:00,48.7,29.9,30.24,SW,223,0.0,0.0,48,0.00,,,0.00,Wunderground v.1.15,2013-05-12 14:35:00,
2013-05-12 09:40:00,48.1,29.8,30.24,NW,319,0.0,0.0,49,0.00,,,0.00,Wunderground v.1.15,2013-05-12 14:40:00,
2013-05-12 09:45:00,48.5,30.2,30.24,NNW,344,1.0,1.0,49,0.00,,,0.00,Wunderground v.1.15,2013-05-12 14:45:00,
2013-05-12 09:50:00,48.7,29.9,30.24,NW,306,0.0,2.0,48,0.00,,,0.00,Wunderground v.1.15,2013-05-12 14:50:00,
2013-05-12 09:55:00,48.7,30.4,30.24,NW,304,1.0,2.0,49,0.00,,,0.00,Wunderground v.1.15,2013-05-12 14:55:00,
2013-05-12 10:05:00,49.4,29.5,30.24,NW,324,1.0,1.0,46,0.00,,,0.00,Wunderground v.1.15,2013-05-12 15:05:00,
2013-05-12 10:10:00,49.3,30.9,30.24,WNW,299,1.0,1.0,49,0.00,,,0.00,Wunderground v.1.15,2013-05-12 15:10:00,
2013-05-12 10:15:00,49.8,29.3,30.24,NW,305,1.0,1.0,45,0.00,,,0.00,Wunderground v.1.15,2013-05-12 15:15:00,
2013-05-12 10:20:00,49.7,28.6,30.24,West,269,2.0,2.0,44,0.00,,,0.00,Wunderground v.1.15,2013-05-12 15:20:00,
2013-05-12 10:25:00,49.8,27.6,30.24,WNW,300,3.0,3.0,42,0.00,,,0.00,Wunderground v.1.15,2013-05-12 15:25:00,
2013-05-12 10:30:00,49.7,28.1,30.24,NNW,338,3.0,3.0,43,0.00,,,0.00,Wunderground v.1.15,2013-05-12 15:30:00,
2013-05-12 10:35:00,49.8,29.3,30.24,WNW,282,2.0,5.0,45,0.00,,,0.00,Wunderground v.1.15,2013-05-12 15:35:00,
2013-05-12 10:45:00,50.6,28.3,30.24,North,355,2.0,2.0,42,0.00,,,0.00,Wunderground v.1.15,2013-05-12 15:45:00,
2013-05-12 10:50:00,50.6,27.7,30.24,North,360,3.0,3.0,41,0.00,,,0.00,Wunderground v.1.15,2013-05-12 15:50:00,
2013-05-12 10:55:00,50.7,29.0,30.24,NW,315,3.0,4.0,43,0.00,,,0.00,Wunderground v.1.15,2013-05-12 15:55:00,
2013-05-12 11:00:00,50.7,27.2,30.24,North,360,2.0,2.0,40,0.00,,,0.00,Wunderground v.1.15,2013-05-12 16:00:00,
2013-05-12 11:05:00,51.0,28.7,30.24,NW,311,2.0,2.0,42,0.00,,,0.00,Wunderground v.1.15,2013-05-12 16:05:00,
2013-05-12 11:10:00,50.9,26.8,30.23,WNW,288,2.0,2.0,39,0.00,,,0.00,Wunderground v.1.15,2013-05-12 16:10:00,
2013-05-12 11:15:00,51.2,28.9,30.23,NNE,21,1.0,2.0,42,0.00,,,0.00,Wunderground v.1.15,2013-05-12 16:15:00,
2013-05-12 11:25:00,51.6,26.8,30.23,NNW,345,2.0,3.0,38,0.00,,,0.00,Wunderground v.1.15,2013-05-12 16:25:00,
2013-05-12 11:30:00,52.0,26.5,30.23,NW,304,2.0,2.0,37,0.00,,,0.00,Wunderground v.1.15,2013-05-12 16:30:00,
2013-05-12 11:35:00,52.3,27.4,30.23,WNW,292,1.0,2.0,38,0.00,,,0.00,Wunderground v.1.15,2013-05-12 16:35:00,
2013-05-12 11:40:00,52.5,26.3,30.23,West,280,1.0,3.0,36,0.00,,,0.00,Wunderground v.1.15,2013-05-12 16:40:00,
2013-05-12 11:45:00,52.8,27.2,30.23,WNW,300,1.0,3.0,37,0.00,,,0.00,Wunderground v.1.15,2013-05-12 16:45:00,
2013-05-12 11:50:00,53.1,26.8,30.23,NNW,341,1.0,1.0,36,0.00,,,0.00,Wunderground v.1.15,2013-05-12 16:50:00,
2013-05-12 11:55:00,53.1,27.5,30.23,NNW,340,2.0,2.0,37,0.00,,,0.00,Wunderground v.1.15,2013-05-12 16:55:00,
2013-05-12 12:05:00,53.1,25.4,30.23,WNW,295,3.0,4.0,34,0.00,,,0.00,Wunderground v.1.15,2013-05-12 17:05:00,
2013-05-12 12:10:00,52.7,26.5,30.23,NW,306,3.0,3.0,36,0.00,,,0.00,Wunderground v.1.15,2013-05-12 17:10:00,
2013-05-12 12:15:00,53.1,27.5,30.23,North,350,1.0,3.0,37,0.00,,,0.00,Wunderground v.1.15,2013-05-12 17:15:00,
2013-05-12 12:20:00,53.3,27.0,30.23,NW,325,2.0,2.0,36,0.00,,,0.00,Wunderground v.1.15,2013-05-12 17:20:00,
2013-05-12 12:25:00,52.8,25.9,30.22,WNW,302,2.0,2.0,35,0.00,,,0.00,Wunderground v.1.15,2013-05-12 17:25:00,
2013-05-12 12:30:00,52.9,27.3,30.22,NW,316,1.0,1.0,37,0.00,,,0.00,Wunderground v.1.15,2013-05-12 17:30:00,
2013-05-12 12:35:00,53.3,27.7,30.22,NNW,345,1.0,1.0,37,0.00,,,0.00,Wunderground v.1.15,2013-05-12 17:35:00,
2013-05-12 12:45:00,54.0,27.6,30.22,NNW,342,0.0,1.0,36,0.00,,,0.00,Wunderground v.1.15,2013-05-12 17:45:00,
2013-05-12 12:50:00,53.9,25.4,30.22,WNW,284,1.0,3.0,33,0.00,,,0.00,Wunderground v.1.15,2013-05-12 17:50:00,
2013-05-12 12:55:00,54.0,26.2,30.22,NNW,334,2.0,3.0,34,0.00,,,0.00,Wunderground v.1.15,2013-05-12 17:55:00,
2013-05-12 13:00:00,54.3,27.2,30.21,NW,304,1.0,1.0,35,0.00,,,0.00,Wunderground v.1.15,2013-05-12 18:00:00,
2013-05-12 13:05:00,54.5,26.0,30.22,North,360,2.0,4.0,33,0.00,,,0.00,Wunderground v.1.15,2013-05-12 18:05:00,
2013-05-12 13:10:00,54.5,26.0,30.21,North,360,2.0,2.0,33,0.00,,,0.00,Wunderground v.1.15,2013-05-12 18:10:00,
2013-05-12 13:15:00,54.5,25.2,30.21,NNE,26,2.0,5.0,32,0.00,,,0.00,Wunderground v.1.15,2013-05-12 18:15:00,
2013-05-12 13:25:00,54.7,26.8,30.21,NNW,334,2.0,3.0,34,0.00,,,0.00,Wunderground v.1.15,2013-05-12 18:25:00,
2013-05-12 13:30:00,54.8,25.5,30.21,NW,318,2.0,2.0,32,0.00,,,0.00,Wunderground v.1.15,2013-05-12 18:30:00,
2013-05-12 13:35:00,54.8,26.2,30.20,WNW,286,2.0,2.0,33,0.00,,,0.00,Wunderground v.1.15,2013-05-12 18:35:00,
2013-05-12 13:40:00,55.0,26.4,30.20,North,360,1.0,1.0,33,0.00,,,0.00,Wunderground v.1.15,2013-05-12 18:40:00,
2013-05-12 13:45:00,55.4,25.2,30.20,NW,309,1.0,1.0,31,0.00,,,0.00,Wunderground v.1.15,2013-05-12 18:45:00,
2013-05-12 13:50:00,55.0,25.6,30.20,NW,311,2.0,2.0,32,0.00,,,0.00,Wunderground v.1.15,2013-05-12 18:50:00,
2013-05-12 14:00:00,55.4,28.2,30.19,North,9,1.0,1.0,35,0.00,,,0.00,Wunderground v.1.15,2013-05-12 19:00:00,
2013-05-12 14:10:00,56.2,28.2,30.19,NW,311,1.0,1.0,34,0.00,,,0.00,Wunderground v.1.15,2013-05-12 19:10:00,
2013-05-12 14:15:00,56.5,27.7,30.19,NW,323,1.0,1.0,33,0.00,,,0.00,Wunderground v.1.15,2013-05-12 19:15:00,
2013-05-12 14:20:00,56.5,26.2,30.19,NW,325,1.0,1.0,31,0.00,,,0.00,Wunderground v.1.15,2013-05-12 19:20:00,
2013-05-12 14:25:00,56.5,29.1,30.19,NW,313,1.0,1.0,35,0.00,,,0.00,Wunderground v.1.15,2013-05-12 19:25:00,
2013-05-12 14:30:00,56.4,25.3,30.19,NNW,327,2.0,2.0,30,0.00,,,0.00,Wunderground v.1.15,2013-05-12 19:30:00,
2013-05-12 14:35:00,56.6,26.3,30.18,WNW,298,2.0,2.0,31,0.00,,,0.00,Wunderground v.1.15,2013-05-12 19:35:00,
2013-05-12 14:45:00,57.4,27.7,30.18,WSW,252,1.0,1.0,32,0.00,,,0.00,Wunderground v.1.15,2013-05-12 19:45:00,
2013-05-12 14:50:00,57.7,28.8,30.18,NW,309,1.0,1.0,33,0.00,,,0.00,Wunderground v.1.15,2013-05-12 19:50:00,
2013-05-12 14:55:00,58.2,28.5,30.17,NNE,19,0.0,1.0,32,0.00,,,0.00,Wunderground v.1.15,2013-05-12 19:55:00,
2013-05-12 15:00:00,58.2,26.9,30.17,West,279,1.0,6.0,30,0.00,,,0.00,Wunderground v.1.15,2013-05-12 20:00:00,
2013-05-12 15:05:00,57.6,25.5,30.17,NW,317,2.0,6.0,29,0.00,,,0.00,Wunderground v.1.15,2013-05-12 20:05:00,
2013-05-12 15:15:00,57.4,27.7,30.17,NW,306,1.0,2.0,32,0.00,,,0.00,Wunderground v.1.15,2013-05-12 20:15:00,
2013-05-12 15:20:00,57.9,28.2,30.17,NW,323,1.0,3.0,32,0.00,,,0.00,Wunderground v.1.15,2013-05-12 20:20:00,
2013-05-12 15:25:00,58.3,26.1,30.17,NW,317,1.0,3.0,29,0.00,,,0.00,Wunderground v.1.15,2013-05-12 20:25:00,
2013-05-12 15:35:00,58.5,27.9,30.17,NNW,344,1.0,4.0,31,0.00,,,0.00,Wunderground v.1.15,2013-05-12 20:35:00,
2013-05-12 15:40:00,58.1,25.1,30.16,SW,233,2.0,2.0,28,0.00,,,0.00,Wunderground v.1.15,2013-05-12 20:40:00,
2013-05-12 15:45:00,58.3,27.8,30.16,North,355,1.0,2.0,31,0.00,,,0.00,Wunderground v.1.15,2013-05-12 20:45:00,
2013-05-12 15:50:00,58.5,27.1,30.16,North,350,1.0,2.0,30,0.00,,,0.00,Wunderground v.1.15,2013-05-12 20:50:00,
2013-05-12 15:55:00,58.7,26.5,30.16,NW,324,1.0,3.0,29,0.00,,,0.00,Wunderground v.1.15,2013-05-12 20:55:00,
2013-05-12 16:05:00,59.0,25.9,30.15,NW,319,1.0,1.0,28,0.00,,,0.00,Wunderground v.1.15,2013-05-12 21:05:00,
2013-05-12 16:10:00,58.5,25.5,30.15,WNW,299,2.0,2.0,28,0.00,,,0.00,Wunderground v.1.15,2013-05-12 21:10:00,
2013-05-12 16:15:00,58.9,27.5,30.15,WNW,283,2.0,2.0,30,0.00,,,0.00,Wunderground v.1.15,2013-05-12 21:15:00,
2013-05-12 16:20:00,59.2,26.9,30.15,WNW,297,0.0,5.0,29,0.00,,,0.00,Wunderground v.1.15,2013-05-12 21:20:00,
2013-05-12 16:25:00,59.4,26.2,30.15,NW,309,1.0,9.0,28,0.00,,,0.00,Wunderground v.1.15,2013-05-12 21:25:00,
2013-05-12 16:30:00,59.2,27.7,30.15,WNW,302,1.0,3.0,30,0.00,,,0.00,Wunderground v.1.15,2013-05-12 21:30:00,
2013-05-12 16:40:00,59.6,25.5,30.14,NW,312,0.0,7.0,27,0.00,,,0.00,Wunderground v.1.15,2013-05-12 21:40:00,
2013-05-12 16:45:00,59.2,25.2,30.14,NW,307,2.0,7.0,27,0.00,,,0.00,Wunderground v.1.15,2013-05-12 21:45:00,
2013-05-12 16:50:00,59.3,26.2,30.14,NW,313,2.0,2.0,28,0.00,,,0.00,Wunderground v.1.15,2013-05-12 21:50:00,
2013-05-12 16:55:00,59.5,24.5,30.14,NNW,329,2.0,2.0,26,0.00,,,0.00,Wunderground v.1.15,2013-05-12 21:55:00,
2013-05-12 17:00:00,59.5,26.3,30.14,North,355,2.0,2.0,28,0.00,,,0.00,Wunderground v.1.15,2013-05-12 22:00:00,
2013-05-12 17:05:00,59.4,26.2,30.14,WNW,294,1.0,2.0,28,0.00,,,0.00,Wunderground v.1.15,2013-05-12 22:05:00,
2013-05-12 17:15:00,59.7,25.6,30.14,SSW,192,1.0,1.0,27,0.00,,,0.00,Wunderground v.1.15,2013-05-12 22:15:00,
2013-05-12 17:20:00,60.2,26.9,30.14,WNW,298,1.0,1.0,28,0.00,,,0.00,Wunderground v.1.15,2013-05-12 22:20:00,
2013-05-12 17:25:00,60.2,25.1,30.14,WNW,300,1.0,1.0,26,0.00,,,0.00,Wunderground v.1.15,2013-05-12 22:25:00,
2013-05-12 17:30:00,60.0,25.9,30.14,NW,315,2.0,2.0,27,0.00,,,0.00,Wunderground v.1.15,2013-05-12 22:30:00,
2013-05-12 17:35:00,59.9,25.8,30.13,West,280,1.0,2.0,27,0.00,,,0.00,Wunderground v.1.15,2013-05-12 22:35:00,
2013-05-12 17:45:00,59.9,24.9,30.13,NW,315,1.0,5.0,26,0.00,,,0.00,Wunderground v.1.15,2013-05-12 22:45:00,
2013-05-12 17:50:00,60.1,26.9,30.13,WNW,299,1.0,1.0,28,0.00,,,0.00,Wunderground v.1.15,2013-05-12 22:50:00,
2013-05-12 17:55:00,60.1,25.1,30.13,WNW,294,1.0,1.0,26,0.00,,,0.00,Wunderground v.1.15,2013-05-12 22:55:00,
2013-05-12 18:00:00,60.1,24.1,30.13,WNW,290,1.0,1.0,25,0.00,,,0.00,Wunderground v.1.15,2013-05-12 23:00:00,
2013-05-12 18:05:00,59.8,24.8,30.12,WNW,298,1.0,1.0,26,0.00,,,0.00,Wunderground v.1.15,2013-05-12 23:05:00,
2013-05-12 18:10:00,59.7,26.5,30.12,NW,304,1.0,7.0,28,0.00,,,0.00,Wunderground v.1.15,2013-05-12 23:10:00,
2013-05-12 18:20:00,59.4,24.5,30.11,NW,307,2.0,2.0,26,0.00,,,0.00,Wunderground v.1.15,2013-05-12 23:20:00,
2013-05-12 18:25:00,59.5,26.3,30.11,WNW,300,0.0,2.0,28,0.00,,,0.00,Wunderground v.1.15,2013-05-12 23:25:00,
2013-05-12 18:30:00,59.5,24.5,30.11,North,5,1.0,1.0,26,0.00,,,0.00,Wunderground v.1.15,2013-05-12 23:30:00,
2013-05-12 18:35:00,59.3,25.3,30.11,WSW,252,1.0,1.0,27,0.00,,,0.00,Wunderground v.1.15,2013-05-12 23:35:00,
2013-05-12 18:40:00,59.2,26.1,30.11,NW,311,0.0,0.0,28,0.00,,,0.00,Wunderground v.1.15,2013-05-12 23:40:00,
2013-05-12 18:50:00,58.8,24.9,30.11,West,273,1.0,1.0,27,0.00,,,0.00,Wunderground v.1.15,2013-05-12 23:50:00,
2013-05-12 18:55:00,58.6,25.6,30.12,WNW,295,0.0,1.0,28,0.00,,,0.00,Wunderground v.1.15,2013-05-12 23:55:00,
2013-05-12 19:05:00,58.5,26.3,30.12,WNW,288,0.0,0.0,29,0.00,,,0.00,Wunderground v.1.15,2013-05-13 00:05:00,
2013-05-12 19:10:00,58.5,25.5,30.12,WNW,297,0.0,0.0,28,0.00,,,0.00,Wunderground v.1.15,2013-05-13 00:10:00,
2013-05-12 19:15:00,58.5,25.5,30.12,WNW,290,0.0,0.0,28,0.00,,,0.00,Wunderground v.1.15,2013-05-13 00:15:00,
2013-05-12 19:20:00,58.5,26.3,30.12,NNW,334,1.0,1.0,29,0.00,,,0.00,Wunderground v.1.15,2013-05-13 00:20:00,
2013-05-12 19:30:00,58.5,26.3,30.12,WNW,292,0.0,0.0,29,0.00,,,0.00,Wunderground v.1.15,2013-05-13 00:30:00,
2013-05-12 19:35:00,58.5,26.3,30.11,NW,314,0.0,0.0,29,0.00,,,0.00,Wunderground v.1.15,2013-05-13 00:35:00,
2013-05-12 19:40:00,58.4,26.2,30.11,NNW,331,0.0,0.0,29,0.00,,,0.00,Wunderground v.1.15,2013-05-13 00:40:00,
2013-05-12 19:45:00,58.2,26.1,30.11,WNW,302,0.0,0.0,29,0.00,,,0.00,Wunderground v.1.15,2013-05-13 00:45:00,
2013-05-12 19:55:00,57.8,25.7,30.11,NW,305,0.0,0.0,29,0.00,,,0.00,Wunderground v.1.15,2013-05-13 00:55:00,
2013-05-12 20:00:00,57.6,26.4,30.11,NW,304,0.0,0.0,30,0.00,,,0.00,Wunderground v.1.15,2013-05-13 01:00:00,
2013-05-12 20:05:00,57.3,26.1,30.11,NW,305,0.0,0.0,30,0.00,,,0.00,Wunderground v.1.15,2013-05-13 01:05:00,
2013-05-12 20:10:00,57.0,26.6,30.11,NW,304,0.0,0.0,31,0.00,,,0.00,Wunderground v.1.15,2013-05-13 01:10:00,
2013-05-12 20:15:00,56.4,26.9,30.11,NW,305,0.0,0.0,32,0.00,,,0.00,Wunderground v.1.15,2013-05-13 01:15:00,
2013-05-12 20:20:00,55.9,26.4,30.11,NW,305,0.0,0.0,32,0.00,,,0.00,Wunderground v.1.15,2013-05-13 01:20:00,
2013-05-12 20:30:00,55.0,27.1,30.11,NW,304,0.0,0.0,34,0.00,,,0.00,Wunderground v.1.15,2013-05-13 01:30:00,
2013-05-12 20:35:00,54.7,26.8,30.11,NW,304,0.0,0.0,34,0.00,,,0.00,Wunderground v.1.15,2013-05-13 01:35:00,
2013-05-12 20:40:00,54.6,26.8,30.11,NW,305,0.0,0.0,34,0.00,,,0.00,Wunderground v.1.15,2013-05-13 01:40:00,
2013-05-12 20:45:00,54.5,27.4,30.11,NW,305,0.0,0.0,35,0.00,,,0.00,Wunderground v.1.15,2013-05-13 01:45:00,
2013-05-12 20:50:00,54.3,27.2,30.11,NW,305,0.0,0.0,35,0.00,,,0.00,Wunderground v.1.15,2013-05-13 01:50:00,
2013-05-12 21:00:00,54.0,26.9,30.11,NW,305,0.0,0.0,35,0.00,,,0.00,Wunderground v.1.15,2013-05-13 02:00:00,
2013-05-12 21:05:00,53.8,28.1,30.12,NW,305,0.0,0.0,37,0.00,,,0.00,Wunderground v.1.15,2013-05-13 02:05:00,
2013-05-12 21:10:00,53.2,28.9,30.12,NW,304,0.0,0.0,39,0.00,,,0.00,Wunderground v.1.15,2013-05-13 02:10:00,
2013-05-12 21:15:00,52.6,28.9,30.12,NW,305,0.0,0.0,40,0.00,,,0.00,Wunderground v.1.15,2013-05-13 02:15:00,
2013-05-12 21:20:00,52.2,27.3,30.12,NW,304,0.0,0.0,38,0.00,,,0.00,Wunderground v.1.15,2013-05-13 02:20:00,
2013-05-12 21:30:00,51.9,27.7,30.12,NW,304,0.0,0.0,39,0.00,,,0.00,Wunderground v.1.15,2013-05-13 02:30:00,
2013-05-12 21:35:00,51.6,28.6,30.12,NW,305,0.0,0.0,41,0.00,,,0.00,Wunderground v.1.15,2013-05-13 02:35:00,
2013-05-12 21:40:00,51.1,28.8,30.13,NW,304,0.0,0.0,42,0.00,,,0.00,Wunderground v.1.15,2013-05-13 02:40:00,
2013-05-12 21:45:00,50.7,28.4,30.13,NW,305,0.0,0.0,42,0.00,,,0.00,Wunderground v.1.15,2013-05-13 02:45:00,
2013-05-12 21:50:00,50.2,28.0,30.13,NW,304,0.0,0.0,42,0.00,,,0.00,Wunderground v.1.15,2013-05-13 02:50:00,
2013-05-12 21:55:00,49.9,27.7,30.13,NW,305,0.0,0.0,42,0.00,,,0.00,Wunderground v.1.15,2013-05-13 02:55:00,
2013-05-12 22:00:00,49.6,27.4,30.13,NW,305,0.0,0.0,42,0.00,,,0.00,Wunderground v.1.15,2013-05-13 03:00:00,
2013-05-12 22:10:00,50.0,27.8,30.13,NW,305,0.0,0.0,42,0.00,,,0.00,Wunderground v.1.15,2013-05-13 03:10:00,
2013-05-12 22:15:00,50.2,27.4,30.13,NW,304,0.0,0.0,41,0.00,,,0.00,Wunderground v.1.15,2013-05-13 03:15:00,
2013-05-12 22:20:00,50.5,27.7,30.13,NW,305,0.0,0.0,41,0.00,,,0.00,Wunderground v.1.15,2013-05-13 03:20:00,
2013-05-12 22:25:00,50.6,27.7,30.13,NW,304,0.0,0.0,41,0.00,,,0.00,Wunderground v.1.15,2013-05-13 03:25:00,
2013-05-12 22:30:00,50.6,27.7,30.13,NW,305,0.0,0.0,41,0.00,,,0.00,Wunderground v.1.15,2013-05-13 03:30:00,
2013-05-12 22:35:00,50.5,27.7,30.13,NW,305,0.0,0.0,41,0.00,,,0.00,Wunderground v.1.15,2013-05-13 03:35:00,
2013-05-12 22:45:00,50.2,28.5,30.13,NW,305,0.0,0.0,43,0.00,,,0.00,Wunderground v.1.15,2013-05-13 03:45:00,
2013-05-12 22:50:00,49.7,28.6,30.13,NW,305,0.0,0.0,44,0.00,,,0.00,Wunderground v.1.15,2013-05-13 03:50:00,
2013-05-12 22:55:00,49.1,29.2,30.13,NW,305,0.0,0.0,46,0.00,,,0.00,Wunderground v.1.15,2013-05-13 03:55:00,
2013-05-12 23:00:00,48.5,28.6,30.13,NW,305,0.0,0.0,46,0.00,,,0.00,Wunderground v.1.15,2013-05-13 04:00:00,
2013-05-12 23:05:00,48.1,28.3,30.13,NW,305,0.0,0.0,46,0.00,,,0.00,Wunderground v.1.15,2013-05-13 04:05:00,
2013-05-12 23:10:00,48.0,28.2,30.13,NW,305,0.0,0.0,46,0.00,,,0.00,Wunderground v.1.15,2013-05-13 04:10:00,
2013-05-12 23:15:00,47.8,28.5,30.13,NW,305,0.0,0.0,47,0.00,,,0.00,Wunderground v.1.15,2013-05-13 04:15:00,
2013-05-12 23:20:00,47.8,28.0,30.12,NW,304,0.0,0.0,46,0.00,,,0.00,Wunderground v.1.15,2013-05-13 04:20:00,
2013-05-12 23:25:00,47.7,29.5,30.12,NW,305,0.0,0.0,49,0.00,,,0.00,Wunderground v.1.15,2013-05-13 04:25:00,
2013-05-12 23:30:00,48.4,27.5,30.12,NW,305,0.0,0.0,44,0.00,,,0.00,Wunderground v.1.15,2013-05-13 04:30:00,
2013-05-12 23:35:00,49.5,27.3,30.12,NW,305,0.0,0.0,42,0.00,,,0.00,Wunderground v.1.15,2013-05-13 04:35:00,
2013-05-12 23:40:00,50.0,27.2,30.12,NW,305,0.0,0.0,41,0.00,,,0.00,Wunderground v.1.15,2013-05-13 04:40:00,
2013-05-12 23:45:00,49.5,27.9,30.12,WNW,288,0.0,0.0,43,0.00,,,0.00,Wunderground v.1.15,2013-05-13 04:45:00,
2013-05-12 23:55:00,49.0,28.0,30.12,West,277,0.0,0.0,44,0.00,,,0.00,Wunderground v.1.15,2013-05-13 04:55:00,